Location: Fenn
(52.1430°N, 112.7440°W)
Time: 14:04:16
(UTC+00:00)

BlueWalker 3 - Pass Details

Date: 10 June 2023
Orbit: 492 x 508 km, 53.2° (Epoch: 21 September)

Event Time Altitude Azimuth Distance (km) Brightness Sun altitude
Rises 06:13:50 0° 287° (WNW) 2,585 6.1 -13.0°
Reaches altitude 10° 06:16:13 10° 275° (W) 1,703 4.9 -13.1°
Maximum altitude 06:19:31 27° 217° (SW) 982 3.1 -13.3°
Enters shadow 06:20:53 22° 182° (S) 1,141 3.2 -13.3°
